Location: Lahas
(43.5538°N, 0.8906°E)
Time: 05:47:28
(UTC+00:00)

Cosmos 2369 - Pass Details

Date: 15 May 2026
Orbit: 836 x 856 km, 71.0° (Epoch: 6 June)

Event Time Altitude Azimuth Distance (km) Brightness Sun altitude
Rises 20:43:18 0° 331° (NNW) 3,430 8.4 -13.8°
Reaches altitude 10° 20:45:48 10° 327° (NNW) 2,492 7.5 -14.2°
Maximum altitude 20:51:21 54° 251° (WSW) 1,029 4.3 -14.9°
Enters shadow 20:56:06 14° 178° (S) 2,190 5.4 -15.5°
